EW2355 Weather Reports


time (UTC)temp
F
wind
direction
speed
knots
gust
knots
rain 1hr
in
rain 24hr
in
rain mn
in
humidity
%
barometer
mb
20260505011606 62 307 0.0 7.0 0.00 0.00 0.00 46 996.6
20260505010055 62 301 0.9 4.3 0.00 0.00 0.00 47 997.0
20260505004554 62 48 0.0 6.1 0.00 0.00 0.00 49 997.0
20260505003053 63 335 0.9 7.0 0.00 0.00 0.00 47 996.8
20260505001552 64 31 2.6 7.0 0.00 0.00 0.00 45 996.9
20260505000107 65 316 3.5 8.7 0.00 0.00 0.00 40 997.0
20260504234551 67 218 1.7 7.8 0.00 0.00 0.00 35 996.7
20260504233106 68 180 0.0 3.5 0.00 0.00 0.00 33 996.3
20260504231550 69 163 0.0 4.3 0.00 0.00 0.00 32 995.8
20260504230049 71 131 0.0 5.2 0.00 0.00 0.00 31 995.5
20260504224556 73 60 1.7 5.2 0.00 0.00 0.00 28 995.4
20260504223107 76 309 0.9 4.3 0.00 0.00 0.00 27 995.4
20260504221546 76 314 1.7 7.0 0.00 0.00 0.00 26 995.5
20260504220045 77 160 1.7 5.2 0.00 0.00 0.00 25 995.6
20260504214542 76 25 0.0 4.3 0.00 0.00 0.00 26 995.8
20260504213051 75 103 0.0 1.7 0.00 0.00 0.00 25 996.0
20260504211538 75 343 0.0 1.7 0.00 0.00 0.00 22 996.1
20260504210038 73 125 0.9 3.5 0.00 0.00 0.00 25 996.3
20260504204542 69 332 0.0 9.6 0.00 0.00 0.00 27 996.4
20260504203030 70 124 0.0 0.0 0.00 0.00 0.00 30 996.8
20260504201527 71 171 0.0 3.5 0.00 0.00 0.00 29 997.0
20260504200026 71 175 0.0 2.6 0.00 0.00 0.00 27 997.1
20260504194523 71 227 0.0 2.6 0.00 0.00 0.00 32 997.3
20260504193023 71 174 0.0 2.6 0.00 0.00 0.00 32 997.5
20260504191518 70 279 0.0 2.6 0.00 0.00 0.00 31 997.6
20260504190017 69 172 0.0 1.7 0.00 0.00 0.00 31 997.8
20260504184514 68 161 0.0 1.7 0.00 0.00 0.00 36 998.0
20260504183013 67 154 0.0 2.6 0.00 0.00 0.00 35 998.1
20260504181513 67 207 0.0 3.5 0.00 0.00 0.00 35 998.3
20260504180008 67 193 0.0 2.6 0.00 0.00 0.00 35 998.5
20260504174507 68 157 0.0 1.7 0.00 0.00 0.00 35 998.6
20260504173006 68 181 0.0 2.6 0.00 0.00 0.00 35 998.8
20260504171506 70 6 0.9 2.6 0.00 0.00 0.00 30 998.8
20260504130127 55 143 1.7 5.2 0.00 0.00 0.00 48 1000.2
20260504081600 59 89 0.9 6.1 0.00 0.00 0.00 34 999.9
20260504044544 61 53 0.0 3.5 0.00 0.00 0.00 28 999.9
20260504043037 62 37 0.0 0.9 0.00 0.00 0.00 28 1000.1
20260504041535 62 23 0.0 0.9 0.00 0.00 0.00 30 1000.0
20260504040044 61 350 0.0 1.7 0.00 0.00 0.00 30 1000.0
20260504034533 63 102 0.0 0.0 0.00 0.00 0.00 29 999.9
20260504033033 64 111 0.0 0.0 0.00 0.00 0.00 27 999.9
20260504031533 66 111 0.0 0.0 0.00 0.00 0.00 25 999.6
20260504030031 68 111 0.0 0.9 0.00 0.00 0.00 24 999.7
20260504024531 69 333 0.0 0.9 0.00 0.00 0.00 22 999.6
20260504023031 69 229 0.0 0.0 0.00 0.00 0.00 21 999.5
20260504021530 70 229 0.0 3.5 0.00 0.00 0.00 22 999.6
20260504020028 72 174 0.0 1.7 0.00 0.00 0.00 20 999.6
20260504014528 73 233 0.0 0.9 0.00 0.00 0.00 20 999.7
20260504013031 74 146 0.0 0.9 0.00 0.00 0.00 17 999.8